Regional Weather Roundup
Issued by NWS Sioux Falls, SD

Home | Current Version | Previous Version | Graphics & Text | Print | Product List | Glossary Off
Versions: 1 2 3 4 5 6 7 8 9 10 11 12 13 14 15 16 17 18 19 20 21 22 23 24 25 26 27 28 29 30 31 32 33 34 35 36 37 38 39 40 41 42 43 44 45 46 47 48 49 50

000
ASUS43 KFSD 040710
RWRFSD

WEATHER ROUNDUP FOR SE SOUTH DAKOTA/SW MINNESOTA/NW IOWA
NATIONAL WEATHER SERVICE SIOUX FALLS SD
100 AM CST WED MAR 04 2015

NOTE: "FAIR" INDICATES FEW OR NO CLOUDS BELOW 12,000 FEET WITH NO
SIGNIFICANT WEATHER AND OR OBSTRUCTIONS TO VISIBILITY.


SDZ038>040-050-052>070-040800-
SOUTHEAST SOUTH DAKOTA

CITY           SKY/WX    TMP DP  RH WIND       PRES   REMARKS
CHAMBERLAIN    CLEAR      3  -5  68 NW9       30.14R WCI -11
HURON          CLEAR     -4  -8  83 CALM      30.15R
MADISON        FAIR       0  -4  85 NW6       30.10R WCI -12
MITCHELL       CLEAR      5   0  79 W5        30.17R WCI  -4
SIOUX FALLS    PTCLDY     5  -2  72 W3        30.13R
WINNER         FAIR       7  -5  57 W13       30.13R WCI  -9
YANKTON        PTCLDY    12   3  67 W5        30.19R WCI   4
$$

MNZ071-072-080-081-089-090-097-098-040800-
SOUTHWEST MINNESOTA

CITY           SKY/WX    TMP DP  RH WIND       PRES   REMARKS
FAIRMONT       PTCLDY     9  -2  61 W15       30.09R WCI  -8
JACKSON        PTCLDY     9  -4  56 NW14      30.10R WCI  -8
LUVERNE        PTCLDY     5   0  78 W3        30.14R
MARSHALL       CLEAR      1  -8  66 NW7       30.12R WCI -11
MONTEVIDEO     CLEAR      3  -4  72 NW10G16   30.11R WCI -12
PIPESTONE      PTCLDY     3  -4  72 NW8       30.08R WCI -10
REDWOOD FALLS  CLEAR      5  -6  60 NW12      30.10R WCI -11
TRACY          CLEAR      4  -4  68 NW10      30.10R WCI -12
WINDOM         PTCLDY     3  -2  78 NW9       30.09R WCI -11
WORTHINGTON    PTCLDY     3  -6  66 NW9       30.12R WCI -11
$$

IAZ001>003-012>014-020>022-031-032-NEZ013-014-SDZ071-040800-
NORTHWEST IOWA

CITY           SKY/WX    TMP DP  RH WIND       PRES   REMARKS
CHEROKEE       CLOUDY    12   5  73 NW3       30.15R
DENISON        CLOUDY    14   5  67 N10       30.13F WCI   1
ESTHERVILLE    PTCLDY     7  -2  66 NW14      30.11R WCI -10
LE MARS        CLOUDY    12   7  79 CALM      30.17S
ORANGE CITY    MOCLDY    12   1  62 N5        30.14R WCI   4
SHELDON        MOCLDY     9   1  72 NW8       30.12R WCI  -4
SIOUX CITY     CLOUDY    16   6  65 NW6       30.19R WCI   7
SPENCER        PTCLDY    10  -1  61 NW13      30.13R WCI  -5
STORM LAKE     CLOUDY    10   3  72 NW9       30.12S WCI  -2
$$

ABBREVIATIONS USED IN REMARKS
   TC - TEMPERATURE IN CELSIUS
  WCI - WIND CHILL INDEX
   HX - HEAT INDEX
  VSB - VISIBILITY




USA.gov is the U.S. government's official web portal to all federal, state and local government web resources and services.